Location: Les Chemineaux
(47.3024°N, 1.5104°E)
Time: 22:05:31
(UTC+00:00)

Cosmos 1500 Rocket - Pass Details

Date: 19 May 2025
Orbit: 598 x 623 km, 82.5° (Epoch: 11 June)

Event Time Altitude Azimuth Distance (km) Brightness Sun altitude
Rises 22:46:28 0° 356° (N) 2,878 8.4 -21.2°
Reaches altitude 10° 22:48:46 10° 2° (N) 1,974 7.2 -21.3°
Maximum altitude 22:52:58 45° 76° (ENE) 842 4.2 -21.5°
Enters shadow 22:53:38 41° 103° (ESE) 889 4.1 -21.5°
